Regional Weather Roundup
Issued by NWS

Home | Current Version | Previous Version | Graphics & Text | Print | Product List | Glossary On
Versions: 1 2 3 4 5 6 7 8 9 10 11 12 13 14 15 16 17 18 19 20 21 22 23 24 25 26 27 28 29 30 31 32 33 34 35 36 37 38 39 40 41 42 43 44 45 46 47 48 49 50
205
ASUS43 KLOT 250307
RWRIL

ILLINOIS REGIONAL WEATHER ROUNDUP
NATIONAL WEATHER SERVICE CHICAGO/ROMEOVILLE IL
1000 PM CDT FRI MAR 24 2017

NOTE: "FAIR" INDICATES FEW OR NO CLOUDS BELOW 12,000 FEET WITH NO
SIGNIFICANT WEATHER AND/OR OBSTRUCTIONS TO VISIBILITY.

* THESE STATIONS ARE NOT UNDER NWS QUALITY CONTROL. THEY ALSO MAY NOT
  REPORT WEATHER SUCH AS PRECIPITATION OR FOG.

ILZ001-002-007-009-015-016-024-250400-
NORTHWEST ILLINOIS

CITY           SKY/WX    TMP DP  RH WIND       PRES   REMARKS
MOLINE         LGT RAIN  56  54  93 E7        29.99R FOG
STERLING*      LGT RAIN  48  43  82 E14       30.04R
SAVANNA*       LGT RAIN  48  46  93 NE13      30.02S
$$

ILZ003-004-008-010-011-017-018-250400-
NORTH CENTRAL ILLINOIS

CITY           SKY/WX    TMP DP  RH WIND       PRES   REMARKS
ROCKFORD       LGT RAIN  44  40  85 E10       30.08F FOG
FREEPORT*      LGT RAIN  44  42  92 E16       30.06F
ROCHELLE*      LGT RAIN  44  41  92 NE15G29   30.05F
DE KALB*       RAIN      43  39  86 N20       30.08R
PERU*          CLOUDY    52  41  67 NE21      30.01F
$$

ILZ005-006-012>014-019>023-250400-
NORTHEAST ILLINOIS

CITY           SKY/WX    TMP DP  RH WIND       PRES   REMARKS
CHICAGO-OHARE  CLOUDY    43  36  76 N16       30.07R
CHICAGO-MIDWAY CLOUDY    43  40  89 N14G22    30.06S
AURORA         CLOUDY    46  38  73 N10       30.09R
LANSING*       CLOUDY    41  41  99 N8        30.06S FOG
JOLIET*        CLOUDY    47  44  89 NE10G18   30.04R FOG
WAUKEGAN       CLOUDY    39  36  89 N12G20    30.08S WCI  32
DUPAGE AIRPORT CLOUDY    44  38  79 NE12G21   30.07R
KANKAKEE*      MOCLDY    51  41  69 NE12      30.02R
WHEELING       LGT RAIN  40  38  93 N13       30.10R
MORRIS*        CLOUDY    46  43  87 NE6       30.02R
ROMEOVILLE*    CLOUDY    43  42  96 NE13G20   30.05R
NORTHERLY ISL    N/A     39  37  92 MISG        N/A
$$

LMZ740>746-250400-
SOUTHERN LAKE MICHIGAN

STATION/POSITION SKY/WX   TEMP    WIND        PRES    VSBY  WAVE
                          AIR SEA DIR/SP/G                  HT/PER
                          (F)     (DEG/KT/KT) (MB)    (MI)  (FT/S)
HARRISON CRIB                     350/ 14/ 15   N/A
BURNHAM HARBOR                     10/ 12/ 17   N/A
CALUMET HARBOR                    340/ 12/ 16 1017.5S
BURNS HARBOR               39     320/  4/ 20 1018.6S
MICHIGAN CITY              42      90/  1/  3   N/A
$$

ILZ025>027-034>036-040-047-049-050-058-095>099-250400-
WEST-CENTRAL ILLINOIS

CITY           SKY/WX    TMP DP  RH WIND       PRES   REMARKS
QUINCY         CLOUDY    57  56  96 E5        29.95F
GALESBURG*     RAIN      54  54 100 E5        29.99S
MACOMB*        CLOUDY    55  54  99 CALM      30.01S FOG
JACKSONVILLE*  CLOUDY    58  53  80 NE8       29.96F
PITTSFIELD*    CLOUDY    60  55  84 NE7       29.96F
$$

ILZ028>032-037-038-041>044-048-051>054-059>061-250400-
CENTRAL ILLINOIS

CITY           SKY/WX    TMP DP  RH WIND       PRES   REMARKS
PONTIAC        MOCLDY    62  50  63 W3        30.01R
BLOOMINGTON    CLOUDY    63  49  60 NW8       30.02R
DECATUR        CLOUDY    66  55  67 S13       30.01S
PEORIA         PTCLDY    61  53  75 NE5       29.99R
LACON*         MOCLDY    59  52  77 N7        29.98F
LINCOLN*       CLOUDY    64  51  64 E5        29.99F
SPRINGFIELD    CLOUDY    63  51  65 NE7       29.98F
TAYLORVILLE    CLOUDY    64  55  72 SE13      30.00S
$$

ILZ033-039-045-046-055>057-062-063-250400-
EAST-CENTRAL ILLINOIS

CITY           SKY/WX    TMP DP  RH WIND       PRES   REMARKS
CHAMPAIGN      CLOUDY    66  54  65 S14       30.02S
RANTOUL*       CLOUDY    67  57  71 S12       30.01F
MATTOON        PTCLDY    65  56  72 S9        30.02F
PARIS*         CLOUDY    63  55  76 S10       30.05F
$$

ILZ079-100>102-250400-
SOUTHWEST ILLINOIS

CITY           SKY/WX    TMP DP  RH WIND       PRES   REMARKS
ALTON          CLOUDY    68  57  68 SE10      29.97F
CAHOKIA*       CLOUDY    69  56  62 SE14G22   29.96S
SPARTA*        MOCLDY    67  56  68 SE8       30.00F
$$

ILZ064>066-069>071-074>076-080>082-084>086-088>090-092>094-250400-
SOUTH-CENTRAL ILLINOIS

CITY           SKY/WX    TMP DP  RH WIND       PRES   REMARKS
CARBONDALE     PTCLDY    66  56  70 SE13      30.01F
CAIRO*         CLOUDY    63  56  77 SE7       30.02F
EFFINGHAM*     PTCLDY    65  56  73 SE9       30.05S
MARION         CLOUDY    66  55  68 SE8       30.04S
MT. VERNON     MOCLDY    65  55  70 SE6       30.03F
CENTRALIA*     CLOUDY    66  57  74 SE8       30.01F
SALEM*         CLOUDY    67  56  66 SE3       30.03S
METROPOLIS*    MOCLDY    66  55  68 SE5       30.05F
$$

ILZ067-068-072-073-078-083-087-091-250400-
SOUTHEAST ILLINOIS

CITY           SKY/WX    TMP DP  RH WIND       PRES   REMARKS
LAWRENCEVILLE  PTCLDY    60  52  74 S9        30.08F
FLORA*         MOCLDY    64  56  75 SE8       30.04F
FAIRFIELD*     MOCLDY    63  55  74 SE5       30.03F
HARRISBURG*    CLOUDY    62  55  79 SE6       30.06S
ROBINSON*      CLOUDY    64  53  67 S10       30.08S
CARMI*         MOCLDY    60  54  81 SE9       30.06F
$$

ABBREVIATIONS USED IN REMARKS
   TC - TEMPERATURE IN CELSIUS
  WCI - WIND CHILL INDEX
   HX - HEAT INDEX
  VSB - VISIBILITY
$$





USA.gov is the U.S. government's official web portal to all federal, state and local government web resources and services.